[[{"header":{"parameterUnit":"m.s-1","parameterCategory":1,"la1":30.2991,"la2":30.254,"lo1":-89.0895,"lo2":-89.0444,"dy":0.0017,"dx":0.0017,"nx":28,"ny":28,"refTime":"2024-08-08T21:00:00:Z","depth":0,"parameterNumber":2,"parameterNumberName":"U-component_of_WINDS"},"data":[0,0,0,0,0,0,0,0,0,0,0,0,0,0,0,0,0,0,0,0,0,0,0,0,0,0,0,0,0,0,0,0,0,0,0,0,0,0,0,0,0,0,0,0,0,0,0,0,0,0,0,0,0,0,0,0,0,0,0.2225,0.2225,0,0.2213,0.2213,0.2212,0.2215,0.2215,0.2215,0.2216,0.2203,0.2202,0.2201,0,0,0,0,0,0,0,0,0,0,0,0,0,0.2252,0.2251,0.2225,0.2225,0.2225,0.2213,0.2213,0.2212,0.2215,0.2215,0.2215,0.2216,0.2203,0.2202,0.2201,0,0,0,0,0,0,0,0,0,0,0,0,0,0.224,0.2251,0.2225,0.2225,0.2224,0.2213,0.2213,0.2212,0.2215,0.2215,0.2215,0.2216,0.2203,0.2202,0.2201,0.2189,0,0,0.2199,0.2198,0,0,0,0,0,0,0,0,0.224,0.2239,0.2225,0.2225,0.2224,0.2216,0.2217,0.2205,0.2215,0.2218,0.2216,0.2216,0.2207,0.2205,0.2202,0.2189,0.2188,0.2199,0.2198,0.2198,0.2198,0,0,0,0,0,0,0,0.2241,0.2239,0.222,0.2225,0.2224,0.2225,0.2224,0.2215,0.2211,0.2218,0.2218,0.2217,0.2207,0.2203,0.2202,0.2188,0.2199,0.2198,0.2197,0.2197,0.2164,0.2164,0,0,0,0,0,0,0.2242,0.224,0.2221,0.222,0.2233,0.2224,0.2223,0.2218,0.2211,0.221,0.2217,0.2217,0.2204,0.2203,0.2202,0.2187,0.2198,0.2197,0.2197,0.2165,0.2164,0.2164,0,0,0,0,0,0,0.2243,0.2241,0.2221,0.223,0.2228,0.2224,0.2218,0.2218,0.2214,0.221,0.2209,0.2214,0.2205,0.2203,0.2192,0.2187,0.2197,0.2196,0.2165,0.2165,0.2164,0.2159,0,0,0,0,0,0,0.2244,0.2241,0.2236,0.223,0.2227,0.2212,0.2218,0.2217,0.2213,0.2213,0.2207,0.2206,0.2205,0.2194,0.2192,0.2186,0.2195,0.2166,0.2165,0.2164,0.2159,0.2158,0.2157,0,0,0,0,0,0.2245,0.2235,0.2236,0.2233,0.2221,0.2212,0.221,0.2209,0.2212,0.2208,0.2205,0.2206,0.2188,0.2193,0.219,0.2184,0.2166,0.2165,0.2164,0.216,0.2158,0.2157,0,0,0,0,0,0,0.224,0.2234,0.2235,0.2223,0.2218,0.2212,0.2206,0.2207,0.2201,0.2201,0.22,0.2199,0.2188,0.2185,0.2191,0.2173,0.2177,0.2176,0.2175,0.2173,0.2172,0.2173,0.2194,0,0,0,0,0,0.2237,0.223,0.2225,0.2215,0.2213,0.221,0.2206,0.2205,0.22,0.2198,0.2194,0.2189,0.2182,0.2178,0.2171,0.2159,0.2158,0.2154,0.2153,0.2152,0.215,0.2144,0.2143,0.2161,0.2161,0.2161,0,0,0.2232,0.2228,0.2224,0.2214,0.221,0.2203,0.2208,0.22,0.2195,0.2197,0.2187,0.2184,0.2178,0.2167,0.2162,0.2164,0.2145,0.2151,0.215,0.2149,0.2143,0.2142,0.214,0.2161,0.2161,0.2161,0,0,0.2219,0.2215,0.2206,0.2203,0.2197,0.2195,0.2193,0.2188,0.2186,0.2176,0.2177,0.2171,0.2159,0.2155,0.2152,0.2138,0.214,0.2136,0.213,0.2124,0.2122,0.2121,0.2116,0.2115,0.2135,0.2135,0.2135,0,0.2213,0.2202,0.2202,0.2194,0.219,0.2192,0.2183,0.218,0.2172,0.2169,0.2172,0.2157,0.2154,0.2142,0.2139,0.2136,0.2133,0.2137,0.2123,0.2121,0.212,0.2116,0.2114,0.2135,0.2135,0.2135,0.2135,0,0.2196,0.2188,0.2182,0.2175,0.217,0.2162,0.2161,0.2156,0.2156,0.2154,0.2145,0.214,0.2133,0.213,0.213,0.2119,0.212,0.2123,0.2128,0.2118,0.2114,0.2112,0.2134,0.2134,0.2134,0.2134,0,0,0.2178,0.2172,0.217,0.2167,0.2161,0.2155,0.2147,0.2141,0.2137,0.2132,0.2125,0.2116,0.2118,0.2114,0.2114,0.2109,0.2099,0.2112,0.2112,0.211,0.2086,0.2084,0.2082,0.21,0.2099,0.2099,0.2087,0,0.2165,0.2151,0.2151,0.2138,0.2132,0.2134,0.2127,0.2123,0.2121,0.2116,0.2114,0.2107,0.2111,0.2108,0.2103,0.2101,0.2094,0.2102,0.2094,0.2094,0.2095,0.208,0.2078,0.2066,0.2085,0.2085,0.2085,0,0.2147,0.2142,0.2129,0.2125,0.2122,0.2116,0.211,0.2104,0.21,0.2099,0.2095,0.2096,0.2088,0.2094,0.2083,0.2089,0.2085,0.2084,0.2083,0.2082,0.2088,0.2079,0.2063,0.2061,0.2082,0.2082,0.2083,0,0.2136,0.2125,0.2116,0.2114,0.2109,0.2105,0.2102,0.2098,0.2095,0.209,0.2087,0.2081,0.2078,0.2074,0.2073,0.2077,0.2063,0.2068,0.2062,0.2062,0.2058,0.2059,0.2042,0.2057,0.2057,0.2057,0.2057,0,0.212,0.2112,0.2111,0.2106,0.2097,0.2097,0.2088,0.2087,0.2083,0.2077,0.2079,0.2074,0.2073,0.2068,0.2067,0.2059,0.2057,0.2056,0.2056,0.2056,0.2056,0.2054,0.2055,0.2056,0.2056,0.2056,0.2056,0,0.2106,0.2105,0.2096,0.2092,0.2091,0.2085,0.2082,0.2077,0.2075,0.2068,0.2067,0.2065,0.2059,0.2057,0.205,0.205,0.204,0.2041,0.2041,0.2041,0.2035,0.2036,0.2016,0.2014,0.203,0.203,0.203,0,0.2096,0.209,0.2086,0.2083,0.208,0.2074,0.2071,0.2071,0.2067,0.2062,0.2058,0.2052,0.2047,0.2037,0.2035,0.203,0.203,0.2024,0.2029,0.203,0.203,0.2031,0.203,0.2022,0.2022,0.2022,0.2022,0,0.2079,0.2079,0.2074,0.2069,0.2065,0.206,0.2057,0.2054,0.2053,0.2049,0.2043,0.2039,0.2032,0.2026,0.2021,0.2019,0.202,0.202,0.2019,0.2018,0.2019,0.2019,0.2038,0.2021,0.2021,0.2021,0.2021,0.2021,0.2066,0.2061,0.2058,0.2052,0.205,0.2047,0.2042,0.204,0.2035,0.203,0.203,0.2024,0.202,0.2013,0.2011,0.2006,0.2008,0.2005,0.2005,0.2004,0.2004,0.202,0.2005,0.2005,0.2005,0.2005,0.2005,0,0.2049,0.2047,0.2042,0.2037,0.2033,0.2036,0.2032,0.2028,0.2022,0.2019,0.2015,0.2008,0.2003,0.2001,0.1995,0.1992,0.1992,0.199,0.1991,0.199,0.2002,0.2004,0.199,0.199,0.199,0.199,0.199,0.199,0.204,0.2031,0.2031,0.2022,0.2021,0.2014,0.2012,0.2009,0.2007,0.1999,0.1995,0.1994,0.1991,0.1986,0.1982,0.1981,0.1979,0.1977,0.1977,0.1988,0.1989,0.1991,0.1993,0.1976,0.1976,0.1965,0.1965,0.1965]},{"header":{"parameterUnit":"m.s-1","parameterCategory":1,"la1":30.2991,"la2":30.254,"lo1":-89.0895,"lo2":-89.0444,"dy":0.0017,"dx":0.0017,"nx":28,"ny":28,"refTime":"2024-08-08T21:00:00:Z","depth":0,"parameterNumber":3,"parameterNumberName":"V-component_of_WINDS"},"data":[0,0,0,0,0,0,0,0,0,0,0,0,0,0,0,0,0,0,0,0,0,0,0,0,0,0,0,0,0,0,0,0,0,0,0,0,0,0,0,0,0,0,0,0,0,0,0,0,0,0,0,0,0,0,0,0,0,0,-4.6531,-4.6532,0,-4.6641,-4.6642,-4.6643,-4.6577,-4.6574,-4.6571,-4.6568,-4.6677,-4.6683,-4.6688,0,0,0,0,0,0,0,0,0,0,0,0,0,-4.6262,-4.6267,-4.6531,-4.6532,-4.6534,-4.6641,-4.6642,-4.6644,-4.6577,-4.6574,-4.657,-4.6566,-4.6675,-4.6682,-4.6689,0,0,0,0,0,0,0,0,0,0,0,0,0,-4.6376,-4.6269,-4.6531,-4.6514,-4.6513,-4.664,-4.6642,-4.6644,-4.6578,-4.6573,-4.6569,-4.6564,-4.6673,-4.6681,-4.669,-4.6839,0,0,-4.6717,-4.672,0,0,0,0,0,0,0,0,-4.6369,-4.6386,-4.6515,-4.6515,-4.6515,-4.659,-4.6587,-4.6709,-4.6579,-4.6554,-4.6567,-4.6562,-4.6652,-4.6662,-4.6693,-4.6844,-4.6849,-4.6717,-4.6723,-4.6727,-4.6729,0,0,0,0,0,0,0,-4.6362,-4.6381,-4.6574,-4.6517,-4.6517,-4.65,-4.6511,-4.661,-4.6628,-4.6555,-4.6551,-4.6565,-4.6651,-4.6684,-4.6695,-4.685,-4.6717,-4.6725,-4.673,-4.6734,-4.713,-4.7135,0,0,0,0,0,0,-4.6355,-4.6374,-4.6571,-4.6578,-4.6429,-4.6508,-4.6521,-4.6571,-4.6626,-4.663,-4.6569,-4.6561,-4.6672,-4.6685,-4.6698,-4.6877,-4.6726,-4.6735,-4.674,-4.7125,-4.7131,-4.7137,0,0,0,0,0,0,-4.635,-4.6373,-4.6566,-4.6475,-4.6498,-4.6518,-4.6575,-4.6576,-4.6609,-4.6637,-4.6639,-4.66,-4.6669,-4.6686,-4.6805,-4.688,-4.6739,-4.6747,-4.7118,-4.7127,-4.7134,-4.7236,0,0,0,0,0,0,-4.6342,-4.6372,-4.6429,-4.6477,-4.6503,-4.6672,-4.658,-4.6581,-4.6625,-4.6616,-4.6667,-4.6671,-4.6666,-4.6792,-4.6814,-4.689,-4.6753,-4.7112,-4.7122,-4.7131,-4.7226,-4.7247,-4.7264,0,0,0,0,0,-4.6333,-4.6453,-4.6433,-4.6457,-4.6576,-4.6677,-4.6692,-4.6685,-4.6631,-4.6689,-4.6707,-4.6669,-4.6868,-4.6805,-4.6828,-4.6908,-4.7107,-4.7119,-4.7131,-4.7218,-4.7243,-4.7264,0,0,0,0,0,0,-4.6413,-4.6459,-4.6437,-4.6576,-4.6623,-4.6665,-4.6738,-4.6712,-4.6774,-4.6763,-4.6751,-4.6763,-4.6887,-4.6909,-4.6838,-4.7056,-4.6979,-4.6996,-4.7037,-4.7061,-4.708,-4.7072,-4.6761,0,0,0,0,0,-4.6447,-4.6526,-4.6561,-4.668,-4.6705,-4.6718,-4.6761,-4.6752,-4.68,-4.682,-4.6846,-4.6893,-4.6966,-4.7014,-4.7083,-4.7229,-4.7239,-4.7295,-4.7314,-4.733,-4.7345,-4.7424,-4.745,-4.7175,-4.7175,-4.7175,0,0,-4.6517,-4.6552,-4.6603,-4.6698,-4.6733,-4.6815,-4.6735,-4.6824,-4.6885,-4.6833,-4.6947,-4.6968,-4.702,-4.7153,-4.7213,-4.7175,-4.7423,-4.7345,-4.7357,-4.7364,-4.7439,-4.7465,-4.7488,-4.7183,-4.7182,-4.7181,0,0,-4.6688,-4.6722,-4.6826,-4.6864,-4.6919,-4.6926,-4.6951,-4.6998,-4.701,-4.7125,-4.7088,-4.7159,-4.7285,-4.7324,-4.736,-4.7546,-4.7514,-4.7569,-4.7668,-4.7745,-4.7767,-4.7786,-4.7853,-4.7877,-4.7583,-4.7584,-4.7584,0,-4.6769,-4.6891,-4.6882,-4.6975,-4.7018,-4.6976,-4.7081,-4.7117,-4.7192,-4.7222,-4.7178,-4.7337,-4.7368,-4.751,-4.7556,-4.7586,-4.7614,-4.7563,-4.7765,-4.7784,-4.7801,-4.7865,-4.7891,-4.759,-4.7589,-4.7589,-4.7588,0,-4.6988,-4.7074,-4.715,-4.7225,-4.7276,-4.7375,-4.738,-4.7433,-4.7419,-4.7431,-4.7549,-4.7585,-4.7661,-4.7694,-4.7681,-4.7835,-4.781,-4.7766,-4.7689,-4.7834,-4.7894,-4.7919,-4.7599,-4.7597,-4.7595,-4.7593,0,0,-4.7213,-4.7282,-4.731,-4.7344,-4.7402,-4.7467,-4.7563,-4.7639,-4.7685,-4.7737,-4.7818,-4.7926,-4.7886,-4.7927,-4.7918,-4.7986,-4.8132,-4.7934,-4.7935,-4.797,-4.8304,-4.8338,-4.8367,-4.8111,-4.8116,-4.8119,-4.83,0,-4.7388,-4.7557,-4.7552,-4.771,-4.7789,-4.775,-4.7834,-4.7878,-4.7892,-4.796,-4.7974,-4.8052,-4.7993,-4.8018,-4.8083,-4.8101,-4.8199,-4.8087,-4.8186,-4.8189,-4.8175,-4.8398,-4.8433,-4.8603,-4.8324,-4.8328,-4.8331,0,-4.7615,-4.7677,-4.7843,-4.789,-4.7923,-4.7999,-4.8068,-4.8134,-4.8183,-4.8188,-4.8235,-4.8215,-4.8312,-4.8231,-4.8365,-4.8289,-4.8328,-4.8343,-4.835,-4.8359,-4.827,-4.8414,-4.8656,-4.8682,-4.8367,-4.8364,-4.8362,0,-4.7764,-4.7888,-4.8004,-4.8034,-4.8091,-4.8145,-4.8172,-4.8216,-4.8262,-4.8322,-4.8352,-4.8422,-4.846,-4.8515,-4.8514,-4.8455,-4.8649,-4.8569,-4.8656,-4.8657,-4.87,-4.8697,-4.8953,-4.8724,-4.8723,-4.8723,-4.8722,0,-4.796,-4.8064,-4.8072,-4.8143,-4.8257,-4.825,-4.8363,-4.8384,-4.8424,-4.8498,-4.8468,-4.8538,-4.8532,-4.8603,-4.8603,-4.8714,-4.8731,-4.8738,-4.8737,-4.8742,-4.8741,-4.8768,-4.8757,-4.873,-4.8728,-4.8727,-4.8726,0,-4.8146,-4.8155,-4.8279,-4.8324,-4.8338,-4.842,-4.8458,-4.8525,-4.8536,-4.8631,-4.8652,-4.8669,-4.8751,-4.8756,-4.8849,-4.8849,-4.8984,-4.8969,-4.8968,-4.8966,-4.9054,-4.9046,-4.9337,-4.9375,-4.912,-4.9123,-4.9125,0,-4.8272,-4.8351,-4.8404,-4.8452,-4.8482,-4.856,-4.8607,-4.8603,-4.8653,-4.8715,-4.8775,-4.8854,-4.8917,-4.9049,-4.907,-4.9141,-4.9128,-4.9225,-4.9139,-4.9141,-4.9131,-4.9127,-4.9135,-4.9242,-4.9245,-4.9248,-4.9249,0,-4.8494,-4.8495,-4.8565,-4.8637,-4.8694,-4.875,-4.8802,-4.8843,-4.8845,-4.8903,-4.8987,-4.9036,-4.9132,-4.9211,-4.9281,-4.9306,-4.9279,-4.9276,-4.9301,-4.9307,-4.9303,-4.9307,-4.9016,-4.927,-4.9268,-4.9266,-4.9265,-4.9264,-4.8654,-4.8723,-4.8772,-4.8851,-4.889,-4.8939,-4.9005,-4.9025,-4.9095,-4.9175,-4.9167,-4.926,-4.9307,-4.9399,-4.943,-4.9502,-4.9469,-4.9504,-4.9513,-4.9522,-4.9532,-4.9291,-4.9515,-4.9514,-4.9514,-4.9513,-4.9513,0,-4.8876,-4.8906,-4.8978,-4.9053,-4.9115,-4.9084,-4.914,-4.9194,-4.9277,-4.9324,-4.9387,-4.9484,-4.956,-4.9587,-4.9661,-4.9714,-4.9703,-4.9733,-4.973,-4.9736,-4.9557,-4.9529,-4.9741,-4.9741,-4.9741,-4.9741,-4.9741,-4.9741,-4.8999,-4.9114,-4.9121,-4.9254,-4.9283,-4.9375,-4.941,-4.9455,-4.9493,-4.9603,-4.9667,-4.9684,-4.9722,-4.9799,-4.9868,-4.9874,-4.9903,-4.9939,-4.994,-4.9772,-4.9749,-4.9727,-4.9701,-4.9945,-4.9946,-5.0113,-5.0115,-5.0116]}]]